Tacoma Narrows, WA
on Sunday, February 24, 2013

Sunday
Previous Day Next Day
Daily Summary
 ActualAverageRecord
Temperature
Mean Temperature °F °F  
Max Temperature 48°F 47°F 60°F (2005)
Min Temperature 39°F 36°F 28°F (2011)
Degree Days
Heating Degree Days 22    
Moisture
Dew Point 33°F   
Average Humidity 67    
Maximum Humidity 81    
Minimum Humidity 52    
Precipitation
Precipitation 0.00 in in in ()
Wind
Wind Speed 11 mph   
Max Wind Speed 17 mph   
Max Gust Speed 26 mph   
Visibility 10 miles   
Events Rain   
Averages and records for this station are not official NWS values.
Key: T is trace of precipitation, MM is missing value
Source: NWS Daily Summary
Seasonal Weather Averages
Time(PST)TemperatureDew PointHumidity Pressure Visibility Wind DirectionWind SpeedGust SpeedPrecipitationEvents Conditions
12:53 AM 41.0°F 34.0°F 76% 30.39 in 10.0 miles South 9.2 mph - N/A   Overcast
1:31 AM 39.2°F 33.8°F 81% 30.38 in 10.0 miles South 9.2 mph - N/A   Overcast
1:53 AM 39.9°F 34.0°F 79% 30.39 in 10.0 miles South 12.7 mph - N/A   Overcast
2:53 AM 41.0°F 34.0°F 76% 30.39 in 10.0 miles South 11.5 mph 23.0 mph N/A   Overcast
3:53 AM 39.9°F 34.0°F 79% 30.38 in 10.0 miles South 10.4 mph - N/A   Overcast
4:53 AM 41.0°F 34.0°F 76% 30.38 in 10.0 miles South 12.7 mph - N/A   Overcast
5:53 AM 41.0°F 34.0°F 76% 30.37 in 10.0 miles South 12.7 mph - N/A   Overcast
6:53 AM 41.0°F 33.1°F 73% 30.36 in 10.0 miles South 9.2 mph - N/A   Overcast
7:53 AM 41.0°F 34.0°F 76% 30.36 in 10.0 miles South 9.2 mph - N/A   Overcast
8:53 AM 42.1°F 33.1°F 70% 30.35 in 10.0 miles SSE 4.6 mph - N/A   Mostly Cloudy
9:53 AM 45.0°F 34.0°F 65% 30.35 in 10.0 miles South 10.4 mph - N/A   Overcast
10:53 AM 45.0°F 33.1°F 63% 30.33 in 10.0 miles South 11.5 mph - N/A   Mostly Cloudy
11:53 AM 45.0°F 34.0°F 65% 30.32 in 10.0 miles South 11.5 mph 18.4 mph N/A   Overcast
12:53 PM 46.0°F 33.1°F 61% 30.29 in 10.0 miles South 15.0 mph - N/A   Overcast
1:53 PM 46.0°F 34.0°F 63% 30.27 in 10.0 miles SSW 17.3 mph 25.3 mph N/A   Overcast
2:53 PM 46.0°F 34.0°F 63% 30.24 in 10.0 miles South 9.2 mph - N/A   Overcast
3:53 PM 48.0°F 35.1°F 61% 30.21 in 10.0 miles SSW 11.5 mph 21.9 mph N/A   Overcast
4:53 PM 46.9°F 33.1°F 59% 30.18 in 10.0 miles South 12.7 mph - 0.00 in   Overcast
5:53 PM 46.0°F 33.1°F 61% 30.15 in 10.0 miles South 11.5 mph - N/A   Overcast
6:53 PM 46.0°F 33.1°F 61% 30.12 in 10.0 miles South 10.4 mph - N/A   Overcast
7:53 PM 46.0°F 33.1°F 61% 30.09 in 10.0 miles South 9.2 mph - N/A   Overcast
8:53 PM 46.0°F 32.0°F 58% 30.06 in 10.0 miles South 9.2 mph - N/A   Overcast
9:53 PM 46.9°F 30.9°F 54% 30.02 in 10.0 miles South 11.5 mph 18.4 mph N/A   Overcast
10:53 PM 46.9°F 30.0°F 52% 29.99 in 10.0 miles South 11.5 mph 17.3 mph N/A   Overcast
11:53 PM 46.0°F 34.0°F 63% 29.95 in 10.0 miles South 16.1 mph 26.5 mph 0.00 in Rain Light Rain
Moon Phase
Feb. 24 Feb. 25 Mar. 04 Mar. 11 Mar. 19
Sunrise:06:59 AM (PST) Moon Rise:05:05 PM (PST)2/24
Sunset:05:48 PM (PST) Moon Set:06:00 AM (PST)2/24

Copyright © 2014 The Weather Underground, Inc.